Starlink 32901

operational
NORAD ID: 62895 Int'l Des: 2025-024 Owner: SPXS Country: US Constellation: starlink
LEOCIRCULAR

Über Starlink 32901

Beschreibung wird geladen...

Live-Position

3D-Globus wird geladen...

Nächste Überflüge

Höhenverlauf

Altitude vs Time

uPlot chart will show altitude changes over time

Zweizeiliger Elementsatz

1 62895U 25024S 25259.60777140 .00022399 00000-0 82063-3 0 9995
2 62895 42.9944 228.3672 0000261 152.5787 207.5078 15.27595297 35647
Epoch: 16. Sept. 2025 • Age: 10 hours

Aktueller Status

Höhe 482.5 km
Geschwindigkeit 7.63 km/s
Subsatellitenpunkt 0.32°N, 37.65°E
Startdatum 4. Feb. 2025
Alter 0.6 years
Typ internet

Technische Details

Klassifizierung Payload
Masse 730.00 kg
Trockenmasse 700.00 kg
Gesamtmasse 730.00 kg
Länge 0.30 m
Durchmesser 4.10 m
Spannweite 29.00 m
Form Box + pan
Hersteller SPXS
Bus-Typ Starlink V2M
Phasenstatus In Orbit
Besitzer/Staat SPXS/US

Große Konstellationen

Loading constellations...